Location: Campillo
(40.8621°N, 4.2488°W)
Time: 21:18:13
(UTC+00:00)

CZ-4 R/B - Visible Passes

Search period start: 19 September 2021 00:00
Search period end: 29 September 2021 00:00
Orbit: 529 x 598 km, 97.8° (Epoch: 19 September)

Date Brightness Start Highest point End Pass type
(mag) Time Alt. Az. Time Alt. Az. Time Alt. Az.
19 Sep 3.3 19:44:44 10° SSW 19:48:05 28° W 19:51:26 10° NW visible
20 Sep 3.3 19:44:32 10° SSW 19:47:54 28° W 19:51:16 10° NW visible
21 Sep 3.3 19:44:21 10° SSW 19:47:42 29° W 19:51:04 10° NW visible
22 Sep 3.3 19:44:09 10° SSW 19:47:30 29° W 19:50:53 10° NW visible
23 Sep 3.3 19:43:57 10° SSW 19:47:18 29° W 19:50:41 10° NW visible
24 Sep 3.3 19:43:44 10° SSW 19:47:06 29° W 19:50:30 10° NW visible
25 Sep 3.2 19:43:32 10° SSW 19:46:54 29° W 19:50:18 10° NW visible
26 Sep 3.2 19:43:19 10° SSW 19:46:42 29° W 19:50:06 10° NW visible
27 Sep 3.2 19:43:07 10° SSW 19:46:30 30° W 19:49:55 10° NW visible
28 Sep 3.2 19:42:54 10° SSW 19:46:17 30° W 19:49:43 10° NW visible
